Wetterdaten: Woche 14.09.15 - 20.09.15 (KW38)
Datum Zeit Temp. A. Feuchte A. Luftdruck Regen Wind Richtung Sonnenschein ET UV Solar Taupunkt Windchill Windben
14.09.2015 00:00 16,8 C 78 % 1006,3 hPa 0,0 l/m 0,4 km/h (0 Bft) N 0,00 h 0,025 mm 0,0 UV-I 0 W/m 13,0 C 16,8 C 2,2 km/h (1 Bft)
14.09.2015 01:00 16,0 C 81 % 1005,8 hPa 0,0 l/m 0,2 km/h (0 Bft) N 0,00 h 0,025 mm 0,0 UV-I 0 W/m 12,8 C 16,0 C 1,5 km/h (1 Bft)
14.09.2015 02:00 15,3 C 84 % 1005,1 hPa 0,0 l/m 0,3 km/h (0 Bft) N 0,00 h 0,025 mm 0,0 UV-I 0 W/m 12,6 C 15,3 C 2,0 km/h (1 Bft)
14.09.2015 03:00 14,6 C 86 % 1004,6 hPa 0,0 l/m 0,3 km/h (0 Bft) N 0,00 h 0,025 mm 0,0 UV-I 0 W/m 12,4 C 14,6 C 1,9 km/h (1 Bft)
14.09.2015 04:00 13,7 C 88 % 1004,4 hPa 0,0 l/m 0,2 km/h (0 Bft) N 0,00 h 0,000 mm 0,0 UV-I 0 W/m 11,8 C 13,7 C 1,0 km/h (0 Bft)
14.09.2015 05:00 13,3 C 90 % 1003,8 hPa 0,0 l/m 0,8 km/h (0 Bft) N 0,00 h 0,000 mm 0,0 UV-I 0 W/m 11,8 C 13,3 C 3,4 km/h (1 Bft)
14.09.2015 06:00 14,1 C 88 % 1003,6 hPa 0,0 l/m 1,8 km/h (1 Bft) O-NO 0,00 h 0,000 mm 0,0 UV-I 5 W/m 12,2 C 14,1 C 6,3 km/h (2 Bft)
14.09.2015 07:00 14,3 C 88 % 1004,1 hPa 0,0 l/m 0,1 km/h (0 Bft) N 0,00 h 0,000 mm 0,0 UV-I 33 W/m 12,4 C 14,3 C 0,8 km/h (0 Bft)
14.09.2015 08:00 14,4 C 88 % 1004,2 hPa 0,0 l/m 0,0 km/h (0 Bft) N 0,00 h 0,025 mm 0,0 UV-I 39 W/m 12,6 C 14,4 C 0,0 km/h (0 Bft)
14.09.2015 09:00 14,7 C 90 % 1004,3 hPa 0,2 l/m 0,1 km/h (0 Bft) N 0,75 h 0,025 mm 0,7 UV-I 78 W/m 13,1 C 14,7 C 0,4 km/h (0 Bft)
14.09.2015 10:00 14,9 C 90 % 1004,9 hPa 0,0 l/m 3,1 km/h (1 Bft) S 0,93 h 0,051 mm 0,7 UV-I 83 W/m 13,3 C 14,8 C 8,4 km/h (2 Bft)
14.09.2015 11:00 14,9 C 90 % 1005,3 hPa 0,2 l/m 2,0 km/h (1 Bft) S 0,75 h 0,051 mm 1,0 UV-I 96 W/m 13,3 C 14,9 C 5,6 km/h (2 Bft)
14.09.2015 12:00 15,2 C 91 % 1005,6 hPa 0,0 l/m 2,7 km/h (1 Bft) SW 1,00 h 0,051 mm 1,3 UV-I 163 W/m 13,8 C 15,1 C 7,9 km/h (2 Bft)
14.09.2015 13:00 15,6 C 89 % 1005,8 hPa 0,0 l/m 4,0 km/h (1 Bft) SW 1,00 h 0,102 mm 1,2 UV-I 153 W/m 13,7 C 15,5 C 10,4 km/h (2 Bft)
14.09.2015 14:00 16,6 C 83 % 1005,8 hPa 0,0 l/m 5,0 km/h (1 Bft) S 1,00 h 0,076 mm 2,1 UV-I 311 W/m 13,7 C 16,1 C 11,8 km/h (2 Bft)
14.09.2015 15:00 16,7 C 80 % 1005,5 hPa 0,0 l/m 4,6 km/h (1 Bft) S 1,00 h 0,178 mm 1,6 UV-I 256 W/m 13,3 C 16,5 C 11,3 km/h (2 Bft)
14.09.2015 16:00 16,6 C 78 % 1006,0 hPa 0,0 l/m 4,6 km/h (1 Bft) S 1,00 h 0,152 mm 0,9 UV-I 137 W/m 12,8 C 16,3 C 10,3 km/h (2 Bft)
14.09.2015 17:00 16,4 C 79 % 1006,4 hPa 0,0 l/m 6,5 km/h (2 Bft) S 1,00 h 0,076 mm 0,6 UV-I 118 W/m 12,8 C 15,7 C 13,4 km/h (3 Bft)
14.09.2015 18:00 16,3 C 79 % 1006,4 hPa 0,0 l/m 5,7 km/h (2 Bft) S 0,75 h 0,076 mm 0,0 UV-I 80 W/m 12,6 C 15,8 C 12,3 km/h (2 Bft)
14.09.2015 19:00 15,3 C 80 % 1006,9 hPa 0,0 l/m 3,0 km/h (1 Bft) S 0,00 h 0,051 mm 0,0 UV-I 17 W/m 12,0 C 15,2 C 7,8 km/h (2 Bft)
14.09.2015 20:00 14,4 C 84 % 1007,5 hPa 0,0 l/m 1,6 km/h (1 Bft) S-SO 0,00 h 0,025 mm 0,0 UV-I 0 W/m 11,7 C 14,4 C 5,4 km/h (1 Bft)
14.09.2015 21:00 14,5 C 84 % 1008,9 hPa 0,0 l/m 1,9 km/h (1 Bft) N 0,00 h 0,025 mm 0,0 UV-I 0 W/m 11,8 C 14,2 C 4,9 km/h (1 Bft)
14.09.2015 22:00 14,1 C 87 % 1009,2 hPa 0,4 l/m 0,7 km/h (0 Bft) N 0,00 h 0,025 mm 0,0 UV-I 0 W/m 11,9 C 14,0 C 2,0 km/h (1 Bft)
14.09.2015 23:00 13,0 C 91 % 1009,8 hPa 0,6 l/m 2,1 km/h (1 Bft) S 0,00 h 0,000 mm 0,0 UV-I 0 W/m 11,5 C 12,9 C 6,3 km/h (2 Bft)
15.09.2015 00:00 12,5 C 93 % 1009,8 hPa 0,0 l/m 0,5 km/h (0 Bft) N 0,00 h 0,000 mm 0,0 UV-I 0 W/m 11,3 C 12,5 C 2,1 km/h (1 Bft)
15.09.2015 01:00 12,4 C 94 % 1009,9 hPa 0,2 l/m 0,1 km/h (0 Bft) N 0,00 h 0,000 mm 0,0 UV-I 0 W/m 11,4 C 12,4 C 0,2 km/h (0 Bft)
15.09.2015 02:00 12,4 C 94 % 1010,5 hPa 0,2 l/m 4,9 km/h (1 Bft) S 0,00 h 0,000 mm 0,0 UV-I 0 W/m 11,4 C 12,0 C 11,0 km/h (2 Bft)
15.09.2015 03:00 12,3 C 93 % 1010,7 hPa 0,0 l/m 4,1 km/h (1 Bft) S 0,00 h 0,000 mm 0,0 UV-I 0 W/m 11,2 C 11,8 C 9,5 km/h (2 Bft)
15.09.2015 04:00 11,7 C 93 % 1010,6 hPa 0,0 l/m 0,1 km/h (0 Bft) N 0,00 h 0,000 mm 0,0 UV-I 0 W/m 10,7 C 11,7 C 1,0 km/h (0 Bft)
15.09.2015 05:00 11,6 C 93 % 1010,7 hPa 0,0 l/m 0,0 km/h (0 Bft) N 0,00 h 0,000 mm 0,0 UV-I 0 W/m 10,5 C 11,6 C 0,0 km/h (0 Bft)
15.09.2015 06:00 11,6 C 93 % 1010,6 hPa 0,0 l/m 0,1 km/h (0 Bft) N 0,00 h 0,000 mm 0,0 UV-I 0 W/m 10,5 C 11,6 C 0,3 km/h (0 Bft)
15.09.2015 07:00 11,9 C 92 % 1010,5 hPa 0,0 l/m 0,1 km/h (0 Bft) N 0,27 h 0,000 mm 0,0 UV-I 33 W/m 10,6 C 11,9 C 1,0 km/h (0 Bft)
15.09.2015 08:00 12,5 C 88 % 1010,5 hPa 0,0 l/m 0,6 km/h (0 Bft) N 0,78 h 0,025 mm 0,5 UV-I 66 W/m 10,6 C 12,5 C 1,7 km/h (1 Bft)
15.09.2015 09:00 13,1 C 84 % 1010,7 hPa 0,0 l/m 1,1 km/h (1 Bft) N 1,00 h 0,025 mm 0,8 UV-I 132 W/m 10,4 C 13,1 C 3,4 km/h (1 Bft)
15.09.2015 10:00 13,6 C 80 % 1010,7 hPa 0,0 l/m 2,2 km/h (1 Bft) S-SO 1,00 h 0,076 mm 1,3 UV-I 161 W/m 10,1 C 13,5 C 6,7 km/h (2 Bft)
15.09.2015 11:00 14,4 C 76 % 1010,5 hPa 0,0 l/m 3,5 km/h (1 Bft) S 1,00 h 0,102 mm 1,6 UV-I 176 W/m 10,3 C 14,2 C 8,8 km/h (2 Bft)
15.09.2015 12:00 14,5 C 74 % 1010,5 hPa 0,0 l/m 4,0 km/h (1 Bft) S-SO 1,00 h 0,102 mm 1,4 UV-I 160 W/m 10,0 C 14,4 C 9,6 km/h (2 Bft)
15.09.2015 13:00 15,2 C 72 % 1010,2 hPa 0,0 l/m 1,8 km/h (1 Bft) N 1,00 h 0,102 mm 1,3 UV-I 133 W/m 10,1 C 15,2 C 5,2 km/h (1 Bft)
15.09.2015 14:00 15,3 C 75 % 1010,2 hPa 0,0 l/m 1,8 km/h (1 Bft) N 1,00 h 0,076 mm 1,2 UV-I 135 W/m 10,8 C 15,3 C 4,0 km/h (1 Bft)
15.09.2015 15:00 16,5 C 66 % 1009,6 hPa 0,0 l/m 2,2 km/h (1 Bft) N 1,00 h 0,076 mm 1,6 UV-I 245 W/m 10,2 C 16,4 C 4,7 km/h (1 Bft)
15.09.2015 16:00 17,4 C 63 % 1009,3 hPa 0,0 l/m 5,0 km/h (1 Bft) N 1,00 h 0,152 mm 1,2 UV-I 220 W/m 10,2 C 17,2 C 9,6 km/h (2 Bft)
15.09.2015 17:00 16,8 C 67 % 1009,3 hPa 0,0 l/m 2,4 km/h (1 Bft) N 1,00 h 0,152 mm 0,6 UV-I 91 W/m 10,5 C 16,8 C 6,0 km/h (2 Bft)
15.09.2015 18:00 16,3 C 69 % 1009,4 hPa 0,0 l/m 1,3 km/h (1 Bft) N 0,10 h 0,076 mm 0,0 UV-I 29 W/m 10,6 C 16,3 C 3,6 km/h (1 Bft)
15.09.2015 19:00 15,8 C 74 % 1009,3 hPa 0,0 l/m 1,3 km/h (1 Bft) N 0,00 h 0,025 mm 0,0 UV-I 6 W/m 11,1 C 15,8 C 4,5 km/h (1 Bft)
15.09.2015 20:00 15,0 C 79 % 1009,4 hPa 0,0 l/m 1,0 km/h (0 Bft) SO 0,00 h 0,000 mm 0,0 UV-I 0 W/m 11,4 C 15,0 C 3,7 km/h (1 Bft)
15.09.2015 21:00 14,0 C 80 % 1009,2 hPa 0,0 l/m 0,5 km/h (0 Bft) N 0,00 h 0,025 mm 0,0 UV-I 0 W/m 10,7 C 14,0 C 2,2 km/h (1 Bft)
15.09.2015 22:00 13,5 C 82 % 1008,7 hPa 0,0 l/m 0,2 km/h (0 Bft) N 0,00 h 0,025 mm 0,0 UV-I 0 W/m 10,5 C 13,5 C 1,3 km/h (1 Bft)
15.09.2015 23:00 13,5 C 80 % 1008,3 hPa 0,0 l/m 0,0 km/h (0 Bft) N 0,00 h 0,025 mm 0,0 UV-I 0 W/m 10,0 C 13,5 C 0,0 km/h (0 Bft)
16.09.2015 00:00 13,3 C 80 % 1007,8 hPa 0,0 l/m 0,0 km/h (0 Bft) N 0,00 h 0,025 mm 0,0 UV-I 0 W/m 10,0 C 13,3 C 0,2 km/h (0 Bft)
16.09.2015 01:00 11,9 C 87 % 1006,9 hPa 0,0 l/m 0,0 km/h (0 Bft) N 0,00 h 0,025 mm 0,0 UV-I 0 W/m 9,7 C 11,9 C 0,4 km/h (0 Bft)
16.09.2015 02:00 10,5 C 92 % 1006,3 hPa 0,0 l/m 0,0 km/h (0 Bft) N 0,00 h 0,000 mm 0,0 UV-I 0 W/m 9,3 C 10,5 C 0,1 km/h (0 Bft)
16.09.2015 03:00 11,4 C 90 % 1005,9 hPa 0,0 l/m 0,0 km/h (0 Bft) N 0,00 h 0,000 mm 0,0 UV-I 0 W/m 9,7 C 11,4 C 0,5 km/h (0 Bft)
16.09.2015 04:00 11,9 C 86 % 1005,4 hPa 0,0 l/m 0,7 km/h (0 Bft) N 0,00 h 0,000 mm 0,0 UV-I 0 W/m 9,6 C 11,9 C 2,9 km/h (1 Bft)
16.09.2015 05:00 12,8 C 80 % 1004,8 hPa 0,0 l/m 0,4 km/h (0 Bft) N 0,00 h 0,000 mm 0,0 UV-I 0 W/m 9,4 C 12,8 C 1,6 km/h (1 Bft)
16.09.2015 06:00 13,2 C 79 % 1004,5 hPa 0,0 l/m 0,3 km/h (0 Bft) N 0,00 h 0,025 mm 0,0 UV-I 0 W/m 9,5 C 13,2 C 1,6 km/h (1 Bft)
16.09.2015 07:00 13,5 C 76 % 1004,3 hPa 0,0 l/m 0,1 km/h (0 Bft) N 0,00 h 0,000 mm 0,0 UV-I 22 W/m 9,4 C 13,5 C 0,6 km/h (0 Bft)
16.09.2015 08:00 14,0 C 77 % 1004,0 hPa 0,0 l/m 0,6 km/h (0 Bft) N 0,87 h 0,025 mm 0,7 UV-I 120 W/m 10,0 C 14,0 C 2,2 km/h (1 Bft)
16.09.2015 09:00 15,8 C 74 % 1003,9 hPa 0,0 l/m 0,2 km/h (0 Bft) N 1,00 h 0,076 mm 1,1 UV-I 230 W/m 11,2 C 15,8 C 1,0 km/h (0 Bft)
16.09.2015 10:00 17,6 C 70 % 1003,7 hPa 0,0 l/m 1,2 km/h (1 Bft) N 1,00 h 0,127 mm 1,9 UV-I 276 W/m 12,0 C 17,6 C 3,2 km/h (1 Bft)
16.09.2015 11:00 19,3 C 65 % 1003,1 hPa 0,0 l/m 0,6 km/h (0 Bft) N 1,00 h 0,152 mm 2,8 UV-I 376 W/m 12,6 C 19,3 C 2,2 km/h (1 Bft)
16.09.2015 12:00 20,9 C 57 % 1002,5 hPa 0,0 l/m 2,1 km/h (1 Bft) N 1,00 h 0,229 mm 3,3 UV-I 427 W/m 12,1 C 20,9 C 4,6 km/h (1 Bft)
16.09.2015 13:00 23,0 C 52 % 1002,1 hPa 0,0 l/m 1,2 km/h (1 Bft) N 1,00 h 0,279 mm 4,3 UV-I 610 W/m 12,6 C 22,9 C 3,9 km/h (1 Bft)
16.09.2015 14:00 22,9 C 54 % 1001,7 hPa 0,0 l/m 1,0 km/h (0 Bft) N 1,00 h 0,381 mm 2,3 UV-I 277 W/m 13,2 C 22,9 C 2,5 km/h (1 Bft)
16.09.2015 15:00 22,3 C 60 % 1002,3 hPa 0,0 l/m 3,2 km/h (1 Bft) S-SO 1,00 h 0,178 mm 1,3 UV-I 169 W/m 14,0 C 22,2 C 6,5 km/h (2 Bft)
16.09.2015 16:00 22,4 C 56 % 1001,7 hPa 0,0 l/m 0,8 km/h (0 Bft) N 1,00 h 0,127 mm 1,1 UV-I 188 W/m 13,3 C 22,4 C 2,3 km/h (1 Bft)
16.09.2015 17:00 21,9 C 63 % 1000,5 hPa 0,0 l/m 0,2 km/h (0 Bft) N 1,00 h 0,127 mm 0,6 UV-I 111 W/m 14,6 C 21,9 C 0,9 km/h (0 Bft)
16.09.2015 18:00 21,4 C 66 % 999,7 hPa 0,0 l/m 0,6 km/h (0 Bft) N 0,40 h 0,076 mm 0,0 UV-I 43 W/m 14,7 C 21,4 C 2,5 km/h (1 Bft)
16.09.2015 19:00 20,6 C 63 % 999,9 hPa 0,0 l/m 0,6 km/h (0 Bft) N 0,00 h 0,025 mm 0,0 UV-I 5 W/m 13,2 C 20,6 C 2,4 km/h (1 Bft)
16.09.2015 20:00 20,0 C 62 % 999,7 hPa 0,0 l/m 0,9 km/h (0 Bft) O 0,00 h 0,000 mm 0,0 UV-I 0 W/m 12,5 C 20,0 C 2,9 km/h (1 Bft)
16.09.2015 21:00 19,0 C 63 % 999,2 hPa 0,0 l/m 1,0 km/h (0 Bft) O-NO 0,00 h 0,051 mm 0,0 UV-I 0 W/m 11,9 C 19,0 C 3,6 km/h (1 Bft)
16.09.2015 22:00 18,3 C 67 % 999,1 hPa 0,0 l/m 0,2 km/h (0 Bft) N 0,00 h 0,025 mm 0,0 UV-I 0 W/m 12,0 C 18,3 C 1,0 km/h (0 Bft)
16.09.2015 23:00 16,9 C 73 % 999,4 hPa 0,0 l/m 1,7 km/h (1 Bft) N 0,00 h 0,025 mm 0,0 UV-I 0 W/m 12,0 C 16,8 C 3,8 km/h (1 Bft)
17.09.2015 00:00 17,3 C 71 % 999,3 hPa 0,0 l/m 2,1 km/h (1 Bft) O-NO 0,00 h 0,025 mm 0,0 UV-I 0 W/m 11,9 C 17,3 C 5,7 km/h (2 Bft)
17.09.2015 01:00 15,8 C 77 % 999,2 hPa 0,0 l/m 1,3 km/h (1 Bft) N 0,00 h 0,025 mm 0,0 UV-I 0 W/m 11,8 C 15,8 C 3,1 km/h (1 Bft)
17.09.2015 02:00 14,0 C 87 % 999,6 hPa 0,0 l/m 0,4 km/h (0 Bft) N 0,00 h 0,025 mm 0,0 UV-I 0 W/m 11,8 C 14,0 C 1,3 km/h (1 Bft)
17.09.2015 03:00 13,3 C 90 % 1000,7 hPa 0,0 l/m 0,2 km/h (0 Bft) N 0,00 h 0,000 mm 0,0 UV-I 0 W/m 11,7 C 13,3 C 1,1 km/h (1 Bft)
17.09.2015 04:00 12,9 C 90 % 1001,4 hPa 0,0 l/m 0,1 km/h (0 Bft) N 0,00 h 0,000 mm 0,0 UV-I 0 W/m 11,4 C 12,9 C 0,4 km/h (0 Bft)
17.09.2015 05:00 12,2 C 92 % 1001,7 hPa 0,0 l/m 0,0 km/h (0 Bft) N 0,00 h 0,000 mm 0,0 UV-I 0 W/m 10,9 C 12,2 C 0,0 km/h (0 Bft)
17.09.2015 06:00 11,5 C 93 % 1002,2 hPa 0,0 l/m 0,0 km/h (0 Bft) N 0,00 h 0,000 mm 0,0 UV-I 5 W/m 10,4 C 11,5 C 0,4 km/h (0 Bft)
17.09.2015 07:00 11,6 C 94 % 1002,2 hPa 0,0 l/m 0,3 km/h (0 Bft) N 0,00 h 0,000 mm 0,0 UV-I 14 W/m 10,6 C 11,6 C 0,6 km/h (0 Bft)
17.09.2015 08:00 14,6 C 87 % 1001,6 hPa 0,0 l/m 0,7 km/h (0 Bft) N 0,87 h 0,000 mm 0,7 UV-I 200 W/m 12,5 C 14,6 C 1,2 km/h (1 Bft)
17.09.2015 09:00 19,1 C 75 % 1001,4 hPa 0,0 l/m 0,2 km/h (0 Bft) N 1,00 h 0,102 mm 1,5 UV-I 388 W/m 14,6 C 19,1 C 0,5 km/h (0 Bft)
17.09.2015 10:00 23,2 C 62 % 1000,9 hPa 0,0 l/m 0,8 km/h (0 Bft) N 1,00 h 0,229 mm 2,6 UV-I 515 W/m 15,6 C 23,2 C 2,3 km/h (1 Bft)
17.09.2015 11:00 25,1 C 54 % 1000,3 hPa 0,0 l/m 3,7 km/h (1 Bft) SO 1,00 h 0,330 mm 3,7 UV-I 602 W/m 15,0 C 25,0 C 7,6 km/h (2 Bft)
17.09.2015 12:00 25,9 C 52 % 1000,1 hPa 0,0 l/m 4,4 km/h (1 Bft) O-NO 1,00 h 0,406 mm 4,3 UV-I 647 W/m 15,4 C 25,8 C 9,3 km/h (2 Bft)
17.09.2015 13:00 27,2 C 48 % 999,8 hPa 0,0 l/m 1,9 km/h (1 Bft) N 1,00 h 0,432 mm 4,3 UV-I 626 W/m 15,1 C 27,2 C 5,0 km/h (1 Bft)
17.09.2015 14:00 26,7 C 46 % 1000,1 hPa 0,0 l/m 9,5 km/h (2 Bft) NW 1,00 h 0,432 mm 3,4 UV-I 530 W/m 14,0 C 25,9 C 16,2 km/h (3 Bft)
17.09.2015 15:00 21,5 C 58 % 1002,0 hPa 0,0 l/m 12,7 km/h (3 Bft) W-NW 1,00 h 0,406 mm 2,0 UV-I 307 W/m 13,0 C 19,8 C 21,6 km/h (4 Bft)
17.09.2015 16:00 19,4 C 59 % 1003,3 hPa 0,0 l/m 9,3 km/h (2 Bft) NW 0,48 h 0,254 mm 0,9 UV-I 63 W/m 11,2 C 18,1 C 15,7 km/h (3 Bft)
17.09.2015 17:00 16,2 C 76 % 1005,2 hPa 1,2 l/m 9,3 km/h (2 Bft) W 0,00 h 0,102 mm 0,0 UV-I 19 W/m 11,9 C 14,6 C 16,0 km/h (3 Bft)
17.09.2015 18:00 14,1 C 91 % 1007,8 hPa 2,0 l/m 4,6 km/h (1 Bft) W-SW 0,00 h 0,051 mm 0,0 UV-I 10 W/m 12,6 C 13,7 C 10,4 km/h (2 Bft)
17.09.2015 19:00 13,3 C 93 % 1008,4 hPa 0,2 l/m 2,4 km/h (1 Bft) W-SW 0,00 h 0,000 mm 0,0 UV-I 6 W/m 12,1 C 13,3 C 6,4 km/h (2 Bft)
17.09.2015 20:00 12,9 C 94 % 1009,3 hPa 1,0 l/m 2,7 km/h (1 Bft) W-SW 0,00 h 0,000 mm 0,0 UV-I 0 W/m 12,0 C 12,9 C 7,7 km/h (2 Bft)
17.09.2015 21:00 12,3 C 93 % 1010,3 hPa 0,0 l/m 3,1 km/h (1 Bft) SW 0,00 h 0,000 mm 0,0 UV-I 0 W/m 11,1 C 12,2 C 9,0 km/h (2 Bft)
17.09.2015 22:00 11,9 C 93 % 1011,3 hPa 0,0 l/m 1,1 km/h (1 Bft) N 0,00 h 0,000 mm 0,0 UV-I 0 W/m 10,8 C 11,9 C 3,7 km/h (1 Bft)
17.09.2015 23:00 11,3 C 94 % 1011,9 hPa 0,0 l/m 3,3 km/h (1 Bft) S 0,00 h 0,000 mm 0,0 UV-I 0 W/m 10,3 C 11,1 C 8,0 km/h (2 Bft)
18.09.2015 00:00 11,1 C 94 % 1012,7 hPa 0,0 l/m 1,8 km/h (1 Bft) S-SW 0,00 h 0,000 mm 0,0 UV-I 0 W/m 10,1 C 11,1 C 6,1 km/h (2 Bft)
18.09.2015 01:00 10,7 C 95 % 1013,3 hPa 0,0 l/m 0,7 km/h (0 Bft) N 0,00 h 0,000 mm 0,0 UV-I 0 W/m 9,9 C 10,7 C 2,2 km/h (1 Bft)
18.09.2015 02:00 10,8 C 93 % 1013,8 hPa 0,0 l/m 0,3 km/h (0 Bft) N 0,00 h 0,000 mm 0,0 UV-I 0 W/m 9,7 C 10,8 C 1,5 km/h (1 Bft)
18.09.2015 03:00 10,7 C 93 % 1014,2 hPa 0,0 l/m 0,0 km/h (0 Bft) N 0,00 h 0,000 mm 0,0 UV-I 0 W/m 9,7 C 10,7 C 0,1 km/h (0 Bft)
18.09.2015 04:00 10,6 C 94 % 1014,5 hPa 0,0 l/m 0,0 km/h (0 Bft) N 0,00 h 0,000 mm 0,0 UV-I 0 W/m 9,6 C 10,6 C 0,0 km/h (0 Bft)
18.09.2015 05:00 10,6 C 94 % 1014,7 hPa 0,0 l/m 0,0 km/h (0 Bft) N 0,00 h 0,000 mm 0,0 UV-I 0 W/m 9,6 C 10,6 C 0,0 km/h (0 Bft)
18.09.2015 06:00 10,2 C 95 % 1014,7 hPa 0,0 l/m 0,0 km/h (0 Bft) N 0,00 h 0,000 mm 0,0 UV-I 0 W/m 9,4 C 10,2 C 0,0 km/h (0 Bft)
18.09.2015 07:00 10,3 C 96 % 1015,5 hPa 0,0 l/m 0,0 km/h (0 Bft) N 0,00 h 0,000 mm 0,0 UV-I 13 W/m 9,7 C 10,3 C 0,0 km/h (0 Bft)
18.09.2015 08:00 10,8 C 94 % 1015,5 hPa 0,0 l/m 0,0 km/h (0 Bft) N 0,30 h 0,000 mm 0,5 UV-I 49 W/m 9,9 C 10,8 C 0,0 km/h (0 Bft)
18.09.2015 09:00 11,7 C 92 % 1016,0 hPa 0,0 l/m 0,3 km/h (0 Bft) N 1,03 h 0,025 mm 0,7 UV-I 123 W/m 10,4 C 11,7 C 1,0 km/h (0 Bft)
18.09.2015 10:00 12,7 C 89 % 1016,6 hPa 0,0 l/m 1,5 km/h (1 Bft) S 1,00 h 0,051 mm 1,2 UV-I 214 W/m 11,0 C 12,7 C 4,1 km/h (1 Bft)
18.09.2015 11:00 13,9 C 86 % 1016,9 hPa 0,0 l/m 0,7 km/h (0 Bft) N 1,00 h 0,102 mm 2,5 UV-I 352 W/m 11,6 C 13,9 C 2,3 km/h (1 Bft)
18.09.2015 12:00 15,6 C 79 % 1017,4 hPa 0,0 l/m 1,5 km/h (1 Bft) S 1,00 h 0,203 mm 2,9 UV-I 417 W/m 12,0 C 15,6 C 4,9 km/h (1 Bft)
18.09.2015 13:00 15,8 C 76 % 1017,6 hPa 0,0 l/m 1,3 km/h (1 Bft) W-SW 1,00 h 0,229 mm 2,3 UV-I 311 W/m 11,6 C 15,8 C 4,1 km/h (1 Bft)
18.09.2015 14:00 16,2 C 73 % 1017,9 hPa 0,0 l/m 0,9 km/h (0 Bft) N 1,00 h 0,178 mm 1,9 UV-I 233 W/m 11,4 C 16,2 C 3,5 km/h (1 Bft)
18.09.2015 15:00 16,3 C 74 % 1017,9 hPa 0,0 l/m 0,9 km/h (0 Bft) N 1,00 h 0,127 mm 1,5 UV-I 218 W/m 11,6 C 16,3 C 3,3 km/h (1 Bft)
18.09.2015 16:00 16,5 C 74 % 1018,0 hPa 0,0 l/m 1,0 km/h (0 Bft) N 1,00 h 0,127 mm 1,2 UV-I 220 W/m 11,8 C 16,5 C 3,4 km/h (1 Bft)
18.09.2015 17:00 16,2 C 76 % 1018,0 hPa 0,0 l/m 0,2 km/h (0 Bft) N 0,75 h 0,127 mm 0,7 UV-I 72 W/m 12,0 C 16,2 C 0,9 km/h (0 Bft)
18.09.2015 18:00 15,6 C 80 % 1018,4 hPa 0,0 l/m 0,0 km/h (0 Bft) N 0,00 h 0,051 mm 0,0 UV-I 20 W/m 12,2 C 15,6 C 0,1 km/h (0 Bft)
18.09.2015 19:00 14,9 C 83 % 1018,7 hPa 0,0 l/m 0,0 km/h (0 Bft) N 0,00 h 0,025 mm 0,0 UV-I 0 W/m 12,1 C 14,9 C 0,1 km/h (0 Bft)
18.09.2015 20:00 14,0 C 86 % 1019,3 hPa 0,0 l/m 0,5 km/h (0 Bft) N 0,00 h 0,000 mm 0,0 UV-I 0 W/m 11,7 C 14,0 C 2,4 km/h (1 Bft)
18.09.2015 21:00 13,1 C 88 % 1019,8 hPa 0,0 l/m 0,0 km/h (0 Bft) N 0,00 h 0,000 mm 0,0 UV-I 0 W/m 11,1 C 13,1 C 0,1 km/h (0 Bft)
18.09.2015 22:00 12,5 C 89 % 1020,2 hPa 0,0 l/m 0,0 km/h (0 Bft) N 0,00 h 0,000 mm 0,0 UV-I 0 W/m 10,7 C 12,5 C 0,0 km/h (0 Bft)
18.09.2015 23:00 11,8 C 90 % 1020,5 hPa 0,0 l/m 0,0 km/h (0 Bft) N 0,00 h 0,000 mm 0,0 UV-I 0 W/m 10,3 C 11,8 C 0,0 km/h (0 Bft)
19.09.2015 00:00 11,3 C 92 % 1020,9 hPa 0,0 l/m 0,0 km/h (0 Bft) N 0,00 h 0,000 mm 0,0 UV-I 0 W/m 10,0 C 11,3 C 0,1 km/h (0 Bft)
19.09.2015 01:00 11,3 C 91 % 1020,9 hPa 0,0 l/m 0,0 km/h (0 Bft) N 0,00 h 0,000 mm 0,0 UV-I 0 W/m 9,9 C 11,3 C 0,0 km/h (0 Bft)
19.09.2015 02:00 10,3 C 90 % 1020,9 hPa 0,0 l/m 0,0 km/h (0 Bft) N 0,00 h 0,000 mm 0,0 UV-I 0 W/m 8,8 C 10,3 C 0,0 km/h (0 Bft)
19.09.2015 03:00 9,5 C 93 % 1021,0 hPa 0,0 l/m 0,1 km/h (0 Bft) N 0,00 h 0,000 mm 0,0 UV-I 0 W/m 8,3 C 9,5 C 0,2 km/h (0 Bft)
19.09.2015 04:00 8,5 C 92 % 1021,1 hPa 0,0 l/m 0,0 km/h (0 Bft) N 0,00 h 0,000 mm 0,0 UV-I 0 W/m 7,3 C 8,5 C 0,0 km/h (0 Bft)
19.09.2015 05:00 7,6 C 92 % 1021,1 hPa 0,0 l/m 0,0 km/h (0 Bft) N 0,00 h 0,000 mm 0,0 UV-I 0 W/m 6,4 C 7,6 C 0,0 km/h (0 Bft)
19.09.2015 06:00 6,6 C 92 % 1021,2 hPa 0,0 l/m 0,0 km/h (0 Bft) N 0,00 h 0,000 mm 0,0 UV-I 5 W/m 5,5 C 6,6 C 0,0 km/h (0 Bft)
19.09.2015 07:00 6,6 C 94 % 1021,4 hPa 0,0 l/m 0,0 km/h (0 Bft) N 0,00 h 0,000 mm 0,0 UV-I 24 W/m 5,8 C 6,6 C 0,0 km/h (0 Bft)
19.09.2015 08:00 8,3 C 95 % 1021,6 hPa 0,0 l/m 0,0 km/h (0 Bft) N 0,90 h 0,000 mm 0,7 UV-I 190 W/m 7,6 C 8,3 C 0,0 km/h (0 Bft)
19.09.2015 09:00 12,4 C 89 % 1021,7 hPa 0,0 l/m 0,1 km/h (0 Bft) N 1,00 h 0,076 mm 1,4 UV-I 388 W/m 10,5 C 12,4 C 0,2 km/h (0 Bft)
19.09.2015 10:00 15,2 C 82 % 1021,5 hPa 0,0 l/m 1,8 km/h (1 Bft) N 1,00 h 0,178 mm 2,3 UV-I 520 W/m 12,1 C 15,2 C 4,3 km/h (1 Bft)
19.09.2015 11:00 16,8 C 71 % 1021,5 hPa 0,0 l/m 3,2 km/h (1 Bft) S 1,00 h 0,279 mm 3,3 UV-I 612 W/m 11,5 C 16,7 C 6,7 km/h (2 Bft)
19.09.2015 12:00 17,7 C 65 % 1021,3 hPa 0,0 l/m 3,8 km/h (1 Bft) W-SW 1,00 h 0,330 mm 3,9 UV-I 655 W/m 11,1 C 17,6 C 8,5 km/h (2 Bft)
19.09.2015 13:00 18,5 C 59 % 1021,0 hPa 0,0 l/m 3,3 km/h (1 Bft) S 1,00 h 0,381 mm 3,9 UV-I 653 W/m 10,3 C 18,4 C 7,8 km/h (2 Bft)
19.09.2015 14:00 18,8 C 56 % 1020,6 hPa 0,0 l/m 4,7 km/h (1 Bft) S 1,00 h 0,381 mm 3,4 UV-I 607 W/m 9,8 C 18,5 C 9,8 km/h (2 Bft)
19.09.2015 15:00 19,1 C 54 % 1020,1 hPa 0,0 l/m 5,5 km/h (2 Bft) S 1,00 h 0,381 mm 2,4 UV-I 524 W/m 9,6 C 18,9 C 11,3 km/h (2 Bft)
19.09.2015 16:00 17,2 C 64 % 1019,9 hPa 0,0 l/m 3,1 km/h (1 Bft) S 1,00 h 0,330 mm 0,7 UV-I 90 W/m 10,3 C 17,0 C 7,7 km/h (2 Bft)
19.09.2015 17:00 16,6 C 70 % 1019,9 hPa 0,0 l/m 1,6 km/h (1 Bft) SW 1,00 h 0,076 mm 0,6 UV-I 121 W/m 11,1 C 16,6 C 4,2 km/h (1 Bft)
19.09.2015 18:00 15,8 C 74 % 1020,1 hPa 0,0 l/m 0,0 km/h (0 Bft) N 0,15 h 0,076 mm 0,0 UV-I 22 W/m 11,1 C 15,8 C 0,2 km/h (0 Bft)
19.09.2015 19:00 14,3 C 82 % 1020,5 hPa 0,2 l/m 2,1 km/h (1 Bft) N 0,00 h 0,025 mm 0,0 UV-I 0 W/m 11,3 C 14,1 C 4,3 km/h (1 Bft)
19.09.2015 20:00 13,0 C 86 % 1020,8 hPa 0,0 l/m 0,0 km/h (0 Bft) N 0,00 h 0,000 mm 0,0 UV-I 0 W/m 10,7 C 13,0 C 0,0 km/h (0 Bft)
19.09.2015 21:00 11,6 C 89 % 1021,0 hPa 0,0 l/m 0,0 km/h (0 Bft) N 0,00 h 0,000 mm 0,0 UV-I 0 W/m 9,9 C 11,6 C 0,0 km/h (0 Bft)
19.09.2015 22:00 10,4 C 91 % 1021,3 hPa 0,0 l/m 0,0 km/h (0 Bft) N 0,00 h 0,000 mm 0,0 UV-I 0 W/m 9,0 C 10,4 C 0,0 km/h (0 Bft)
19.09.2015 23:00 9,5 C 92 % 1021,7 hPa 0,0 l/m 0,0 km/h (0 Bft) N 0,00 h 0,000 mm 0,0 UV-I 0 W/m 8,3 C 9,5 C 0,0 km/h (0 Bft)
20.09.2015 00:00 9,0 C 93 % 1021,8 hPa 0,0 l/m 0,0 km/h (0 Bft) N 0,00 h 0,000 mm 0,0 UV-I 0 W/m 7,9 C 9,0 C 0,0 km/h (0 Bft)
20.09.2015 01:00 8,6 C 93 % 1021,6 hPa 0,0 l/m 0,0 km/h (0 Bft) N 0,00 h 0,000 mm 0,0 UV-I 0 W/m 7,5 C 8,6 C 0,0 km/h (0 Bft)
20.09.2015 02:00 8,2 C 93 % 1021,6 hPa 0,0 l/m 0,0 km/h (0 Bft) N 0,00 h 0,000 mm 0,0 UV-I 0 W/m 7,2 C 8,2 C 0,0 km/h (0 Bft)
20.09.2015 03:00 7,8 C 94 % 1021,5 hPa 0,0 l/m 0,0 km/h (0 Bft) N 0,00 h 0,000 mm 0,0 UV-I 0 W/m 6,9 C 7,8 C 0,0 km/h (0 Bft)
20.09.2015 04:00 7,8 C 95 % 1021,3 hPa 0,0 l/m 0,0 km/h (0 Bft) N 0,00 h 0,000 mm 0,0 UV-I 0 W/m 7,1 C 7,8 C 0,0 km/h (0 Bft)
20.09.2015 05:00 7,8 C 96 % 1021,3 hPa 0,0 l/m 0,0 km/h (0 Bft) N 0,00 h 0,000 mm 0,0 UV-I 0 W/m 7,2 C 7,8 C 0,0 km/h (0 Bft)
20.09.2015 06:00 7,8 C 96 % 1021,2 hPa 0,0 l/m 0,0 km/h (0 Bft) N 0,00 h 0,000 mm 0,0 UV-I 0 W/m 7,3 C 7,8 C 0,0 km/h (0 Bft)
20.09.2015 07:00 8,2 C 96 % 1021,9 hPa 0,0 l/m 0,0 km/h (0 Bft) N 0,00 h 0,000 mm 0,0 UV-I 13 W/m 7,7 C 8,2 C 0,0 km/h (0 Bft)
20.09.2015 08:00 9,1 C 97 % 1022,1 hPa 0,0 l/m 0,0 km/h (0 Bft) N 0,32 h 0,000 mm 0,5 UV-I 52 W/m 8,6 C 9,1 C 0,1 km/h (0 Bft)
20.09.2015 09:00 10,4 C 95 % 1022,2 hPa 0,0 l/m 0,0 km/h (0 Bft) N 0,70 h 0,025 mm 0,8 UV-I 92 W/m 9,7 C 10,4 C 0,0 km/h (0 Bft)
20.09.2015 10:00 12,4 C 88 % 1022,0 hPa 0,0 l/m 0,9 km/h (0 Bft) N 0,90 h 0,051 mm 1,4 UV-I 268 W/m 10,5 C 12,4 C 1,9 km/h (1 Bft)
20.09.2015 11:00 13,6 C 79 % 1021,9 hPa 0,0 l/m 3,0 km/h (1 Bft) N 1,00 h 0,127 mm 2,1 UV-I 281 W/m 10,0 C 13,6 C 6,6 km/h (2 Bft)
20.09.2015 12:00 14,1 C 72 % 1021,7 hPa 0,0 l/m 1,4 km/h (1 Bft) N 0,95 h 0,152 mm 1,5 UV-I 179 W/m 9,1 C 14,1 C 4,3 km/h (1 Bft)
20.09.2015 13:00 13,3 C 76 % 1021,7 hPa 1,4 l/m 4,7 km/h (1 Bft) NW 0,80 h 0,102 mm 1,4 UV-I 141 W/m 9,1 C 12,5 C 9,7 km/h (2 Bft)
20.09.2015 14:00 10,9 C 90 % 1022,0 hPa 0,0 l/m 3,0 km/h (1 Bft) N 1,00 h 0,076 mm 1,0 UV-I 141 W/m 9,4 C 10,6 C 5,4 km/h (1 Bft)
20.09.2015 15:00 11,8 C 85 % 1021,6 hPa 0,0 l/m 0,3 km/h (0 Bft) N 1,00 h 0,076 mm 1,3 UV-I 198 W/m 9,3 C 11,8 C 1,1 km/h (0 Bft)
20.09.2015 16:00 13,3 C 74 % 1021,3 hPa 0,0 l/m 3,6 km/h (1 Bft) W 1,00 h 0,102 mm 1,1 UV-I 219 W/m 8,6 C 13,1 C 7,9 km/h (2 Bft)
20.09.2015 17:00 13,5 C 69 % 1021,3 hPa 0,0 l/m 4,6 km/h (1 Bft) W 0,97 h 0,127 mm 0,6 UV-I 114 W/m 7,8 C 13,0 C 9,3 km/h (2 Bft)
20.09.2015 18:00 12,8 C 70 % 1021,3 hPa 0,0 l/m 1,5 km/h (1 Bft) W 0,00 h 0,076 mm 0,0 UV-I 27 W/m 7,6 C 12,8 C 4,3 km/h (1 Bft)
20.09.2015 19:00 11,4 C 76 % 1021,4 hPa 0,0 l/m 0,1 km/h (0 Bft) N 0,00 h 0,025 mm 0,0 UV-I 6 W/m 7,3 C 11,4 C 0,4 km/h (0 Bft)
20.09.2015 20:00 10,6 C 79 % 1021,5 hPa 0,0 l/m 1,3 km/h (1 Bft) W 0,00 h 0,000 mm 0,0 UV-I 0 W/m 7,2 C 10,6 C 3,9 km/h (1 Bft)
20.09.2015 21:00 10,0 C 83 % 1021,7 hPa 0,0 l/m 1,0 km/h (0 Bft) W 0,00 h 0,025 mm 0,0 UV-I 0 W/m 7,2 C 10,0 C 3,0 km/h (1 Bft)
20.09.2015 22:00 9,3 C 86 % 1021,7 hPa 0,0 l/m 0,1 km/h (0 Bft) N 0,00 h 0,025 mm 0,0 UV-I 0 W/m 7,1 C 9,3 C 0,4 km/h (0 Bft)
20.09.2015 23:00 8,5 C 88 % 1021,5 hPa 0,0 l/m 0,0 km/h (0 Bft) N 0,00 h 0,000 mm 0,0 UV-I 0 W/m 6,7 C 8,5 C 0,0 km/h (0 Bft)
Min-Datum _ 19.09.15 17.09.15 16.09.15 - 14.09.15 - - - - - 19.09.15 20.09.15 14.09.15
_ Min-Zeit 06:51 14:07 22:25 - 00:00 - - - - - 06:40 13:50 00:00
Minimum _ 6,3 C 39 % 998,9 hPa - 0,0 km/h (0 Bft) - - - - - 5,2 C 5,7 C 0,0 km/h (0 Bft)
Max-Datum _ 17.09.15 20.09.15 20.09.15 17.09.15 17.09.15 - 18.09.15 17.09.15 16.09.15 18.09.15 17.09.15 17.09.15 17.09.15
_ Max-Zeit 14:20 07:54 08:37 18:05 14:43 - 09:03 13:00 12:57 11:30 10:16 14:20 14:43
Maximum _ 28,2 C 97 % 1022,3 hPa 2,0 l/m 24,1 km/h
NW (4 Bft)
- 0,10 h 0,432 mm 5,6 UV-I 953 W/m 16,8 C 28,2 C 35,4 km/h
W-NW (5 Bft)
Durchschnitt _ 14,2 C 81 % 1011,6 hPa #7,8 l/m 1,5 km/h (1 Bft) N #65:43 h #11,697 mm 1,7 UV-I 199 W/m 10,8 C 14,1 C 3,6 km/h (1 Bft)